[[{"header":{"parameterUnit":"m.s-1","parameterCategory":1,"la1":30.2991,"la2":30.254,"lo1":-89.0895,"lo2":-89.0444,"dy":0.0017,"dx":0.0017,"nx":28,"ny":28,"refTime":"2023-08-21T09:00:00:Z","depth":0,"parameterNumber":2,"parameterNumberName":"U-component_of_WINDS"},"data":[0,0,0,0,0,0,0,0,0,0,0,0,0,0,0,0,0,0,0,0,0,0,0,0,0,0,0,0,0,0,0,0,0,0,0,0,0,0,0,0,0,0,0,0,0,0,0,0,0,0,0,0,0,0,0,0,0,0,-7.2479,-7.2479,0,-7.2498,-7.2498,-7.2498,-7.2377,-7.2373,-7.237,-7.2367,-7.2386,-7.2389,-7.2393,0,0,0,0,0,0,0,0,0,0,0,0,0,-7.2339,-7.2342,-7.2479,-7.2479,-7.2479,-7.2498,-7.2498,-7.2498,-7.2377,-7.2373,-7.2369,-7.2365,-7.2385,-7.2389,-7.2393,0,0,0,0,0,0,0,0,0,0,0,0,0,-7.2383,-7.2343,-7.2479,-7.2421,-7.2416,-7.2498,-7.2498,-7.2499,-7.2378,-7.2373,-7.2368,-7.2363,-7.2383,-7.2389,-7.2394,-7.2532,0,0,-7.2411,-7.2413,0,0,0,0,0,0,0,0,-7.2381,-7.2388,-7.2429,-7.2425,-7.242,-7.243,-7.2456,-7.251,-7.238,-7.2393,-7.2367,-7.2361,-7.2405,-7.2408,-7.2423,-7.2533,-7.2533,-7.2412,-7.2415,-7.2417,-7.2419,0,0,0,0,0,0,0,-7.2378,-7.2387,-7.2486,-7.243,-7.2424,-7.2395,-7.2395,-7.2465,-7.2427,-7.2391,-7.2382,-7.2386,-7.2401,-7.2418,-7.2422,-7.2534,-7.2411,-7.2416,-7.242,-7.2422,-7.276,-7.2765,0,0,0,0,0,0,-7.2382,-7.2385,-7.2486,-7.2487,-7.2387,-7.2402,-7.2402,-7.2432,-7.2426,-7.242,-7.2391,-7.2381,-7.2411,-7.2416,-7.2423,-7.2585,-7.2417,-7.2422,-7.2426,-7.2754,-7.2761,-7.2767,0,0,0,0,0,0,-7.238,-7.2392,-7.2485,-7.2434,-7.2443,-7.2409,-7.2444,-7.2435,-7.2452,-7.2426,-7.2419,-7.2415,-7.2407,-7.2415,-7.2506,-7.2584,-7.2425,-7.243,-7.2748,-7.2757,-7.2764,-7.2911,0,0,0,0,0,0,-7.2376,-7.2392,-7.2444,-7.2436,-7.2446,-7.2568,-7.2448,-7.2439,-7.2462,-7.2449,-7.2447,-7.2441,-7.2404,-7.2499,-7.2512,-7.2589,-7.2434,-7.2741,-7.2752,-7.2762,-7.2899,-7.2923,-7.2944,0,0,0,0,0,-7.2372,-7.2483,-7.2447,-7.246,-7.251,-7.2573,-7.2579,-7.2533,-7.2468,-7.252,-7.2504,-7.2441,-7.2574,-7.2509,-7.2523,-7.2603,-7.2735,-7.2749,-7.2761,-7.2889,-7.2918,-7.2943,0,0,0,0,0,0,-7.25,-7.2481,-7.244,-7.2553,-7.2566,-7.2552,-7.2616,-7.2566,-7.2597,-7.2583,-7.2525,-7.2526,-7.2627,-7.2624,-7.2552,-7.2737,-7.2643,-7.2659,-7.2736,-7.2764,-7.2786,-7.2785,-7.2439,0,0,0,0,0,-7.2542,-7.2595,-7.2575,-7.2676,-7.2685,-7.265,-7.2675,-7.264,-7.265,-7.2655,-7.2645,-7.2658,-7.2702,-7.2732,-7.2772,-7.2898,-7.2897,-7.296,-7.2982,-7.3001,-7.3016,-7.3085,-7.3113,-7.2809,-7.2809,-7.2809,0,0,-7.2628,-7.2624,-7.2661,-7.2702,-7.2707,-7.2764,-7.2655,-7.2718,-7.276,-7.2664,-7.275,-7.2744,-7.2755,-7.2865,-7.2912,-7.2865,-7.31,-7.3017,-7.3032,-7.3037,-7.3101,-7.3129,-7.3155,-7.2818,-7.2816,-7.2815,0,0,-7.2815,-7.2816,-7.2902,-7.2911,-7.2921,-7.2897,-7.2918,-7.2913,-7.2906,-7.2991,-7.2921,-7.297,-7.3047,-7.3058,-7.3074,-7.3269,-7.3213,-7.3283,-7.3401,-7.3469,-7.3493,-7.3514,-7.3585,-7.3611,-7.3298,-7.3298,-7.3298,0,-7.292,-7.3002,-7.2952,-7.3022,-7.3043,-7.296,-7.3047,-7.3057,-7.308,-7.3097,-7.3043,-7.314,-7.3141,-7.3254,-7.3302,-7.3317,-7.334,-7.3283,-7.3493,-7.3514,-7.3533,-7.36,-7.3627,-7.3306,-7.3306,-7.3305,-7.3304,0,-7.3133,-7.3191,-7.3259,-7.3285,-7.3313,-7.3391,-7.3354,-7.3389,-7.3351,-7.3334,-7.3424,-7.3422,-7.3461,-7.3485,-7.3448,-7.3594,-7.3564,-7.3503,-7.3408,-7.3571,-7.3633,-7.3659,-7.3319,-7.3316,-7.3313,-7.3311,0,0,-7.3399,-7.3398,-7.3424,-7.3436,-7.3442,-7.3487,-7.3562,-7.36,-7.3632,-7.3651,-7.3714,-7.3783,-7.3727,-7.3745,-7.3709,-7.3769,-7.3926,-7.37,-7.37,-7.3744,-7.4088,-7.4135,-7.4165,-7.3889,-7.3893,-7.3897,-7.4088,0,-7.3583,-7.3711,-7.3669,-7.3799,-7.3854,-7.3777,-7.3842,-7.3854,-7.3841,-7.3885,-7.387,-7.392,-7.3842,-7.3853,-7.3908,-7.3895,-7.3994,-7.388,-7.3947,-7.395,-7.3948,-7.4197,-7.4246,-7.4426,-7.4111,-7.4115,-7.4118,0,-7.3813,-7.3843,-7.3979,-7.3979,-7.4,-7.406,-7.4093,-7.4137,-7.4149,-7.4135,-7.4158,-7.411,-7.4185,-7.409,-7.4193,-7.4117,-7.4142,-7.414,-7.4145,-7.415,-7.4045,-7.421,-7.4482,-7.451,-7.4156,-7.4153,-7.415,0,-7.3996,-7.407,-7.4162,-7.4174,-7.4175,-7.422,-7.4222,-7.423,-7.4257,-7.4286,-7.4303,-7.4341,-7.4362,-7.4393,-7.4358,-7.4291,-7.4467,-7.4368,-7.4459,-7.446,-7.4499,-7.4498,-7.4781,-7.4515,-7.4514,-7.4514,-7.4513,0,-7.4205,-7.4292,-7.4244,-7.4301,-7.4396,-7.4348,-7.4444,-7.4438,-7.4446,-7.4501,-7.4436,-7.4489,-7.4439,-7.4487,-7.446,-7.4551,-7.456,-7.4552,-7.4544,-7.4559,-7.456,-7.4575,-7.4562,-7.4521,-7.4519,-7.4518,-7.4517,0,-7.4426,-7.4397,-7.4492,-7.4487,-7.4488,-7.4558,-7.4554,-7.4607,-7.4589,-7.466,-7.4673,-7.4646,-7.4701,-7.4668,-7.4723,-7.4705,-7.4824,-7.4798,-7.482,-7.4814,-7.4907,-7.4899,-7.521,-7.5249,-7.4957,-7.496,-7.4962,0,-7.4561,-7.4627,-7.4629,-7.4662,-7.4669,-7.4722,-7.4749,-7.4705,-7.4737,-7.4758,-7.4809,-7.4857,-7.4894,-7.4985,-7.4971,-7.5013,-7.4988,-7.5094,-7.4994,-7.5008,-7.4992,-7.4989,-7.4996,-7.5115,-7.5118,-7.5121,-7.5123,0,-7.4806,-7.479,-7.4832,-7.4871,-7.4906,-7.4935,-7.4957,-7.4988,-7.4944,-7.4983,-7.5038,-7.5067,-7.5124,-7.5174,-7.5211,-7.5214,-7.5163,-7.5155,-7.5179,-7.5194,-7.5205,-7.5202,-7.4877,-7.5148,-7.5146,-7.5144,-7.5142,-7.5141,-7.4989,-7.5045,-7.5056,-7.5106,-7.5119,-7.5143,-7.5193,-7.5183,-7.5228,-7.5272,-7.5243,-7.5309,-7.5322,-7.5366,-7.5376,-7.5428,-7.5385,-7.5419,-7.5427,-7.5437,-7.545,-7.5197,-7.5434,-7.5433,-7.5433,-7.5432,-7.5432,0,-7.5232,-7.5236,-7.5283,-7.5318,-7.5359,-7.5307,-7.533,-7.5367,-7.5426,-7.5443,-7.5481,-7.5546,-7.5595,-7.5586,-7.5631,-7.5674,-7.5652,-7.5687,-7.5684,-7.5686,-7.5485,-7.5461,-7.5705,-7.5705,-7.5705,-7.5705,-7.5705,-7.5705,-7.5364,-7.5455,-7.5441,-7.5539,-7.5542,-7.5606,-7.5625,-7.5647,-7.566,-7.5736,-7.5776,-7.577,-7.5777,-7.5822,-7.5866,-7.5862,-7.5882,-7.5927,-7.5915,-7.5727,-7.57,-7.5674,-7.5651,-7.5931,-7.5932,-7.6111,-7.6113,-7.6114]},{"header":{"parameterUnit":"m.s-1","parameterCategory":1,"la1":30.2991,"la2":30.254,"lo1":-89.0895,"lo2":-89.0444,"dy":0.0017,"dx":0.0017,"nx":28,"ny":28,"refTime":"2023-08-21T09:00:00:Z","depth":0,"parameterNumber":3,"parameterNumberName":"V-component_of_WINDS"},"data":[0,0,0,0,0,0,0,0,0,0,0,0,0,0,0,0,0,0,0,0,0,0,0,0,0,0,0,0,0,0,0,0,0,0,0,0,0,0,0,0,0,0,0,0,0,0,0,0,0,0,0,0,0,0,0,0,0,0,-1.5133,-1.5132,0,-1.5095,-1.5094,-1.5094,-1.5006,-1.5004,-1.5002,-1.5,-1.4964,-1.4965,-1.4965,0,0,0,0,0,0,0,0,0,0,0,0,0,-1.5129,-1.513,-1.5133,-1.5132,-1.5132,-1.5095,-1.5094,-1.5094,-1.5006,-1.5004,-1.5002,-1.5,-1.4964,-1.4965,-1.4965,0,0,0,0,0,0,0,0,0,0,0,0,0,-1.5115,-1.513,-1.5133,-1.5083,-1.5079,-1.5095,-1.5094,-1.5094,-1.5007,-1.5004,-1.5001,-1.4998,-1.4963,-1.4964,-1.4966,-1.5028,0,0,-1.4969,-1.4969,0,0,0,0,0,0,0,0,-1.5116,-1.5115,-1.5091,-1.5087,-1.5081,-1.5052,-1.508,-1.5072,-1.5007,-1.5034,-1.5,-1.4997,-1.4996,-1.4994,-1.4993,-1.5026,-1.5024,-1.4969,-1.497,-1.497,-1.4971,0,0,0,0,0,0,0,-1.5117,-1.5117,-1.5118,-1.5091,-1.5085,-1.5063,-1.5058,-1.5078,-1.5031,-1.5031,-1.5025,-1.5022,-1.4992,-1.4992,-1.4991,-1.5024,-1.4969,-1.497,-1.4971,-1.4971,-1.5104,-1.5106,0,0,0,0,0,0,-1.5125,-1.5118,-1.5119,-1.5117,-1.5092,-1.5066,-1.506,-1.5064,-1.503,-1.5022,-1.5024,-1.5018,-1.4992,-1.499,-1.499,-1.5059,-1.497,-1.4971,-1.4972,-1.5101,-1.5104,-1.5107,0,0,0,0,0,0,-1.5125,-1.5126,-1.512,-1.5115,-1.5113,-1.5069,-1.5074,-1.5065,-1.5065,-1.5025,-1.5016,-1.5032,-1.4989,-1.4988,-1.5018,-1.5057,-1.4972,-1.4973,-1.5098,-1.5102,-1.5106,-1.5199,0,0,0,0,0,0,-1.5126,-1.5127,-1.515,-1.5117,-1.5114,-1.515,-1.5077,-1.5066,-1.5066,-1.5058,-1.503,-1.5023,-1.4987,-1.5017,-1.5019,-1.5057,-1.4974,-1.5094,-1.5099,-1.5105,-1.5193,-1.5206,-1.5218,0,0,0,0,0,-1.5126,-1.5179,-1.5152,-1.5152,-1.5142,-1.5152,-1.515,-1.5108,-1.507,-1.5093,-1.5067,-1.5024,-1.5052,-1.5021,-1.5023,-1.5061,-1.5091,-1.5098,-1.5104,-1.5187,-1.5204,-1.5218,0,0,0,0,0,0,-1.5219,-1.5173,-1.5143,-1.5186,-1.5174,-1.5137,-1.5165,-1.5127,-1.5125,-1.5117,-1.5065,-1.5059,-1.5096,-1.5081,-1.5048,-1.5118,-1.5065,-1.5072,-1.5127,-1.5142,-1.5155,-1.5158,-1.4975,0,0,0,0,0,-1.5244,-1.5256,-1.5216,-1.5258,-1.5253,-1.521,-1.5213,-1.5181,-1.5166,-1.5161,-1.5137,-1.5124,-1.513,-1.5135,-1.5139,-1.519,-1.5182,-1.5217,-1.5229,-1.524,-1.5247,-1.5272,-1.5287,-1.5129,-1.5128,-1.5128,0,0,-1.5297,-1.5274,-1.5285,-1.5276,-1.5262,-1.5276,-1.5206,-1.5224,-1.5234,-1.5163,-1.519,-1.5172,-1.5155,-1.5195,-1.5212,-1.5184,-1.5289,-1.5248,-1.5257,-1.5258,-1.528,-1.5295,-1.5309,-1.5133,-1.5132,-1.5131,0,0,-1.5401,-1.5384,-1.5417,-1.5404,-1.5384,-1.5354,-1.5362,-1.5331,-1.5316,-1.5342,-1.5289,-1.5299,-1.5311,-1.53,-1.5296,-1.5393,-1.5354,-1.5396,-1.5463,-1.5488,-1.55,-1.5511,-1.5545,-1.5558,-1.5403,-1.5403,-1.5403,0,-1.547,-1.5487,-1.5439,-1.5459,-1.5457,-1.5392,-1.5425,-1.5415,-1.5397,-1.5397,-1.5366,-1.5377,-1.5361,-1.5398,-1.5421,-1.542,-1.5428,-1.5399,-1.5502,-1.5512,-1.5522,-1.5554,-1.5567,-1.5408,-1.5408,-1.5407,-1.5407,0,-1.5573,-1.5586,-1.5615,-1.5598,-1.5598,-1.5625,-1.558,-1.5587,-1.5554,-1.5528,-1.5554,-1.5532,-1.5529,-1.5535,-1.5504,-1.5567,-1.555,-1.5511,-1.5456,-1.5543,-1.5572,-1.5584,-1.5416,-1.5414,-1.5413,-1.5411,0,0,-1.5736,-1.5689,-1.5701,-1.5692,-1.5664,-1.5673,-1.5696,-1.5692,-1.5698,-1.5688,-1.5706,-1.5716,-1.5679,-1.5675,-1.5641,-1.5663,-1.5741,-1.5621,-1.562,-1.5644,-1.5808,-1.5838,-1.5853,-1.5713,-1.5716,-1.5717,-1.581,0,-1.5832,-1.5869,-1.5825,-1.5871,-1.5882,-1.582,-1.584,-1.5825,-1.5801,-1.5807,-1.578,-1.5788,-1.5739,-1.5735,-1.5754,-1.5727,-1.5773,-1.572,-1.573,-1.5731,-1.5737,-1.5868,-1.59,-1.5989,-1.5821,-1.5823,-1.5824,0,-1.5951,-1.5944,-1.5991,-1.5958,-1.5961,-1.598,-1.5972,-1.5978,-1.596,-1.594,-1.5935,-1.5894,-1.5914,-1.586,-1.5887,-1.5852,-1.5853,-1.5841,-1.5843,-1.5843,-1.5784,-1.5872,-1.6016,-1.6029,-1.5842,-1.584,-1.5839,0,-1.6065,-1.6068,-1.6096,-1.609,-1.6052,-1.6067,-1.6052,-1.603,-1.603,-1.6023,-1.6022,-1.6018,-1.6016,-1.6014,-1.5973,-1.5938,-1.6005,-1.5948,-1.599,-1.5991,-1.6008,-1.6008,-1.6154,-1.6008,-1.6008,-1.6008,-1.6008,0,-1.6178,-1.6209,-1.6146,-1.6164,-1.6196,-1.6145,-1.6179,-1.6157,-1.6138,-1.615,-1.6096,-1.6109,-1.6054,-1.6061,-1.6029,-1.6056,-1.6056,-1.6041,-1.6032,-1.6046,-1.6048,-1.6047,-1.604,-1.6011,-1.6011,-1.601,-1.6009,0,-1.6311,-1.627,-1.6297,-1.6258,-1.6249,-1.6275,-1.6242,-1.6256,-1.6228,-1.6244,-1.6244,-1.62,-1.6205,-1.6164,-1.6161,-1.614,-1.6182,-1.6162,-1.6188,-1.6182,-1.6227,-1.6223,-1.6378,-1.6396,-1.6239,-1.624,-1.6242,0,-1.6387,-1.6409,-1.6372,-1.6375,-1.6363,-1.637,-1.6369,-1.6319,-1.632,-1.6299,-1.6316,-1.6316,-1.6313,-1.6324,-1.6292,-1.629,-1.627,-1.6324,-1.6269,-1.6282,-1.6271,-1.627,-1.6272,-1.6336,-1.6338,-1.634,-1.6341,0,-1.6524,-1.6502,-1.6502,-1.6495,-1.6495,-1.6487,-1.6476,-1.6482,-1.6428,-1.6432,-1.6435,-1.6433,-1.643,-1.6431,-1.6421,-1.6406,-1.6365,-1.6358,-1.6368,-1.6382,-1.6396,-1.6389,-1.622,-1.6355,-1.6354,-1.6353,-1.6352,-1.6351,-1.6631,-1.6647,-1.6623,-1.6625,-1.661,-1.6601,-1.6612,-1.6584,-1.6586,-1.6578,-1.6548,-1.6557,-1.6536,-1.6519,-1.6508,-1.6514,-1.6488,-1.6502,-1.6505,-1.651,-1.6518,-1.6395,-1.6512,-1.6512,-1.6511,-1.6511,-1.6511,0,-1.6765,-1.6746,-1.6748,-1.6733,-1.6734,-1.6693,-1.6678,-1.6682,-1.669,-1.6674,-1.6672,-1.6675,-1.6675,-1.6643,-1.6638,-1.665,-1.6631,-1.665,-1.6649,-1.6646,-1.6542,-1.6534,-1.6666,-1.6666,-1.6666,-1.6666,-1.6666,-1.6666,-1.6836,-1.6861,-1.6836,-1.6853,-1.6833,-1.6841,-1.6835,-1.6826,-1.6812,-1.6818,-1.6818,-1.6796,-1.6772,-1.6766,-1.6764,-1.6754,-1.6755,-1.6782,-1.6766,-1.6669,-1.6654,-1.664,-1.6632,-1.6782,-1.6783,-1.687,-1.6871,-1.6871]}]]